sat.trackr.live / text

‹ back to catalog

STARLINK-30149

NORAD 57516 · 2023-113X

PAYLOAD ACTIVE UNKNOWN

§ Identity

Operator
Country
US
Launch date
2023-08-07
Launch site
AFETR
Launch vehicle
Mass (kg)
RCS (m²)

Purposes: comms

External: N2YO · Heavens-Above · Gunter

§ Orbital elements

Epoch: 2026-09-20T06:13:08.987520Z

Period
94.27 min
Inclination
43.0060°
Eccentricity
0.0001927
Mean motion
15.27573500 rev/d
Perigee alt
481.7 km
Apogee alt
484.4 km
Semi-major
6,861.2 km
B*
4.7377e-6
RAAN
357.1127°
Arg perigee
269.3531°
Mean anomaly
90.7100°
Rev number
17,333

§ Raw data

STARLINK-301491 57516U 23113X   26263.25913180 -.00000132  00000+0  47377-5 0  99912 57516  43.0060 357.1127 0001927 269.3531  90.7100 15.27573500173332

JSON: /api/v1/satellites/57516 · /tle

For live sub-satellite position, see the globe view (requires WebGL).

§ Visibility from observer

Set your observer location to see the next 7 days of passes ≥ 10°. The values pass through the URL so the page stays shareable.

No JS? Fill the form by hand. The geolocation button needs JavaScript.